Terminal Aerodrome Forecast
Issued by NWS

Home | Current Version | Previous Version | Text Only | Print | Product List | Glossary On
Versions: 1 2 3 4 5 6 7 8 9 10 11 12 13 14 15
898
FTAK31 PAJN 280520
TAFAPG
TAF
PAPG 280520Z 2806/2906 20008KT 6SM -SHRA SCT015 OVC035
     FM280900 21007KT 6SM -SHRA BR SCT010 OVC025
     FM281500 VRB04KT P6SM VCSH SCT015 BKN030 BKN080
     FM282100 12006KT P6SM VCSH SCT025 BKN035 BKN100
      AMD LTD TO CLD VIS AND WIND 2806/2815=

USA.gov is the U.S. government's official web portal to all federal, state and local government web resources and services.